Location: Newark
(45.1000°N, 8.5833°E)
Time: 20:24:13
(UTC+00:00)

ISS - Pass Details

Date: 18 September 2019
Orbit: 411 x 421 km, 51.6° (Epoch: 13 October)

Event Time Altitude Azimuth Distance (km) Brightness Sun altitude
Rises 19:22:22 0° 219° (SW) 2,330 0.2 -19.8°
Reaches altitude 10° 19:24:32 10° 211° (SSW) 1,472 -0.9 -20.1°
Enters shadow 19:25:21 16° 205° (SSW) 1,167 -1.5 -20.2°
